Temp
77 77 76 75 75 76 76 75 75 75 75 76 76 75 74 71 67 66 70 71 76 76 76 75 75 75 75 75 75 75 74 74 74
73 76 76 75 75 76 75 75 75 74 74 75 75 75 72 67 65 65 67 71 75 75 76 76 75 75 75 74 74 74 74 74 74
69 73 76 76 75 76 75 75 74 74 74 74 74 73 70 69 66 66 68 73 75 75 74 74 74 74 73 73 74 74 74 73 74
66 67 74 76 76 75 75 74 74 74 73 73 72 71 69 65 67 69 67 73 75 74 74 74 74 74 73 73 73 72 73 73 73
64 63 65 75 75 74 74 74 74 73 72 72 71 70 68 64 66 66 70 74 74 74 73 73 73 73 73 72 73 73 73 73 73
62 61 63 67 74 73 73 73 73 72 70 70 70 67 64 65 66 65 71 73 74 74 74 73 73 73 74 72 73 72 73 72 71
60 59 61 62 71 71 73 72 70 69 63 62 66 63 63 65 65 65 71 74 73 73 72 72 72 71 71 71 71 71 71 71 70
57 57 58 59 66 69 70 68 65 64 61 60 61 63 63 63 64 68 71 73 73 73 72 72 71 71 71 71 71 70 70 69 69
56 55 56 57 57 68 65 63 62 62 61 60 61 62 62 62 63 65 69 72 73 72 72 73 72 71 71 71 70 70 69 68 68
54 55 56 56 57 57 65 63 64 62 61 61 62 62 62 63 63 62 66 69 71 72 72 71 71 71 71 70 70 69 69 68 68
53 55 55 55 57 56 57 65 63 62 61 61 62 62 62 63 62 61 66 68 69 71 71 71 71 71 70 70 69 69 68 68 68
54 54 54 54 56 56 58 65 66 61 63 60 61 61 61 61 61 61 63 66 66 69 71 71 71 71 71 70 69 68 68 68 67
51 51 52 54 56 56 56 62 65 62 64 58 58 58 61 60 60 61 62 64 65 67 69 69 71 71 71 70 69 68 67 67 66
50 51 53 55 54 54 55 56 60 62 62 62 57 57 57 59 62 60 61 64 63 63 66 66 67 69 71 70 69 68 67 66 66
48 49 50 51 51 53 54 54 57 64 63 64 58 55 56 57 57 59 62 63 64 62 62 62 64 66 69 70 69 68 67 66 66
47 47 48 50 51 52 54 54 54 59 64 56 54 53 54 59 59 57 57 60 63 62 61 61 62 64 67 69 69 68 67 66 66
46 46 46 48 49 51 53 53 53 54 61 59 56 51 55 57 57 59 61 56 58 62 63 63 60 55 56 60 67 68 68 67 66
44 46 47 47 48 49 51 53 53 52 55 61 54 49 48 48 51 55 57 55 53 54 60 60 58 55 54 58 61 65 66 67 67
42 44 45 45 45 46 47 53 53 53 52 56 59 56 54 48 45 48 53 57 57 53 53 54 56 55 54 56 56 60 63 66 67
40 42 42 43 44 44 45 47 48 53 53 55 57 54 53 52 47 45 52 50 54 54 55 54 54 54 53 53 55 59 62 66 67
MSLP
1019.53 1019.39 1019.42 1019.49 1019.76 1019.83 1020.03 1020.28 1020.38 1020.55 1020.60 1020.63 1020.71 1020.83 1021.12 1021.18 1021.43 1021.56 1021.52 1021.55 1021.49 1021.47 1021.44 1021.42 1021.37 1021.36 1021.38 1021.46 1021.63 1021.77 1021.84 1021.91 1022.00
1019.83 1019.51 1019.48 1019.58 1019.71 1019.89 1020.07 1020.37 1020.61 1020.69 1020.81 1020.81 1020.95 1020.94 1021.20 1021.59 1021.73 1021.93 1021.90 1021.77 1021.77 1021.91 1021.83 1021.77 1021.81 1021.70 1021.79 1021.94 1022.14 1022.12 1022.21 1022.35 1022.40
1020.38 1019.78 1019.43 1019.52 1019.72 1019.74 1019.93 1020.42 1020.72 1020.90 1020.99 1021.01 1021.03 1021.30 1021.39 1021.63 1021.92 1021.95 1022.11 1021.98 1021.96 1022.21 1022.27 1022.25 1022.23 1022.17 1022.29 1022.36 1022.45 1022.56 1022.59 1022.75 1022.77
1020.62 1020.21 1019.79 1019.46 1019.61 1019.79 1019.89 1020.36 1020.76 1020.99 1021.21 1021.17 1021.20 1021.40 1021.75 1021.88 1022.00 1022.11 1022.21 1022.23 1022.24 1022.35 1022.51 1022.55 1022.54 1022.56 1022.63 1022.75 1022.90 1023.11 1023.12 1023.07 1023.15
1020.82 1020.71 1020.57 1019.62 1019.42 1019.70 1019.97 1020.26 1020.72 1021.02 1021.26 1021.41 1021.39 1021.45 1021.63 1022.00 1022.12 1022.38 1022.33 1022.45 1022.61 1022.73 1022.86 1022.83 1022.89 1022.98 1023.14 1023.19 1023.24 1023.33 1023.41 1023.46 1023.47
1021.02 1021.03 1020.70 1019.80 1019.38 1019.60 1019.95 1020.36 1020.68 1020.93 1021.40 1021.45 1021.62 1021.65 1021.99 1022.00 1022.20 1022.47 1022.53 1022.65 1022.81 1022.93 1023.13 1023.21 1023.32 1023.42 1023.39 1023.58 1023.60 1023.71 1023.77 1023.80 1023.99
1021.27 1021.29 1020.78 1020.28 1019.36 1019.48 1019.86 1020.33 1020.76 1021.15 1021.57 1021.61 1021.79 1022.01 1022.18 1022.06 1022.40 1022.47 1022.61 1022.73 1023.05 1023.24 1023.33 1023.56 1023.63 1023.85 1023.95 1024.01 1024.16 1024.26 1024.28 1024.36 1024.45
1021.92 1021.75 1021.18 1021.09 1019.69 1019.66 1019.82 1020.30 1020.63 1021.19 1021.70 1021.68 1021.83 1022.09 1022.28 1022.33 1022.47 1022.49 1022.67 1022.89 1023.18 1023.43 1023.53 1023.75 1023.95 1024.10 1024.23 1024.25 1024.35 1024.53 1024.64 1024.78 1024.90
1022.52 1022.13 1021.76 1021.60 1021.18 1019.39 1019.76 1020.26 1020.58 1021.12 1021.61 1021.65 1021.69 1022.00 1022.35 1022.44 1022.60 1022.66 1022.87 1023.07 1023.33 1023.54 1023.75 1023.84 1024.10 1024.32 1024.39 1024.47 1024.67 1024.77 1024.90 1025.05 1025.12
1023.26 1022.44 1021.95 1021.80 1021.78 1021.56 1020.20 1019.83 1020.55 1021.03 1021.35 1021.61 1021.69 1021.90 1022.36 1022.29 1022.60 1022.86 1023.19 1023.34 1023.58 1023.71 1023.86 1024.08 1024.32 1024.46 1024.61 1024.82 1024.88 1025.07 1025.11 1025.24 1025.23
1022.80 1022.80 1022.17 1022.12 1021.77 1021.45 1021.41 1019.87 1019.96 1020.79 1021.05 1021.39 1021.63 1021.75 1022.15 1022.33 1022.63 1022.91 1023.26 1023.58 1023.81 1023.93 1024.05 1024.12 1024.34 1024.53 1024.88 1024.95 1025.05 1025.19 1025.25 1025.23 1025.34
1023.44 1023.09 1022.44 1022.73 1022.05 1022.21 1020.71 1019.57 1019.48 1020.36 1020.76 1021.21 1021.43 1021.70 1021.94 1022.45 1022.67 1022.93 1023.16 1023.62 1023.95 1024.05 1024.11 1024.25 1024.46 1024.61 1024.75 1025.05 1025.29 1025.31 1025.49 1025.45 1025.43
1024.19 1023.53 1023.30 1022.92 1022.10 1021.46 1021.27 1020.13 1019.56 1019.95 1020.47 1020.93 1021.43 1021.67 1021.83 1022.26 1022.63 1022.86 1023.06 1023.63 1023.97 1024.11 1024.16 1024.34 1024.38 1024.56 1024.72 1025.01 1025.31 1025.47 1025.65 1025.71 1025.69
1024.79 1023.95 1023.01 1022.22 1021.67 1021.63 1022.05 1021.10 1020.42 1019.40 1020.11 1020.81 1021.34 1021.82 1022.12 1022.28 1022.51 1022.86 1023.07 1023.56 1023.90 1024.11 1024.23 1024.37 1024.49 1024.70 1024.75 1024.94 1025.24 1025.51 1025.67 1025.84 1025.85
1025.13 1024.40 1023.53 1023.22 1022.80 1022.44 1021.58 1021.31 1020.57 1019.63 1019.31 1020.51 1021.42 1021.86 1022.19 1022.46 1022.59 1022.75 1022.96 1023.37 1023.73 1024.07 1024.26 1024.40 1024.56 1024.80 1024.80 1024.89 1025.15 1025.46 1025.68 1025.84 1025.91
1025.39 1024.47 1023.77 1023.16 1022.60 1022.15 1021.83 1022.09 1020.86 1019.94 1019.57 1020.49 1021.85 1022.31 1022.39 1022.69 1022.70 1022.64 1022.93 1023.23 1023.49 1023.88 1024.14 1024.32 1024.48 1024.72 1024.85 1024.96 1025.13 1025.37 1025.62 1025.74 1025.84
1025.51 1025.08 1024.89 1024.08 1023.33 1022.67 1022.60 1021.54 1021.28 1021.23 1020.40 1019.47 1021.10 1022.43 1022.70 1022.75 1022.70 1022.60 1022.64 1023.07 1023.28 1023.52 1023.76 1023.96 1024.32 1024.78 1024.91 1025.09 1025.07 1025.30 1025.44 1025.60 1025.79
1026.20 1025.51 1025.03 1023.89 1023.15 1023.16 1022.32 1021.89 1021.89 1022.13 1020.69 1020.05 1019.12 1021.54 1021.94 1022.43 1022.72 1022.59 1022.73 1023.03 1023.25 1023.34 1023.38 1023.62 1023.95 1024.43 1024.73 1024.91 1024.99 1025.16 1025.26 1025.37 1025.61
1026.19 1025.65 1025.00 1024.24 1024.28 1023.37 1022.64 1021.60 1021.88 1021.33 1021.03 1020.15 1019.55 1018.84 1019.73 1021.25 1022.59 1022.63 1022.41 1022.65 1022.98 1023.11 1023.30 1023.37 1023.51 1023.89 1024.28 1024.51 1024.64 1024.90 1025.08 1025.22 1025.30
1026.50 1025.88 1025.29 1024.93 1024.21 1023.70 1022.93 1022.77 1022.55 1021.49 1021.21 1020.51 1020.10 1019.82 1019.12 1019.83 1020.43 1021.80 1022.11 1022.54 1022.34 1022.40 1022.68 1022.94 1023.12 1023.40 1023.77 1024.07 1024.28 1024.52 1024.82 1025.01 1025.07
Wind_Speed
14 5 5 11 12 13 13 12 12 10 8 7 7 8 9 11 7 7 8 7 11 13 14 14 15 16 16 16 16 15 15 16 15
19 10 8 11 14 15 14 11 10 10 6 5 4 7 7 6 7 6 5 6 12 12 13 14 14 15 15 15 15 15 15 16 15
20 16 10 13 13 15 16 13 11 8 6 4 2 9 11 8 6 6 4 10 13 12 12 13 14 15 15 15 14 16 14 15 15
23 20 15 14 13 14 15 14 11 9 5 4 2 6 9 6 5 5 3 10 13 13 13 13 14 14 15 15 14 14 13 14 15
23 23 22 16 15 14 14 15 13 11 6 5 4 2 9 6 6 4 5 11 11 12 12 13 14 14 14 14 14 14 13 15 13
15 20 23 21 17 16 15 14 12 9 6 6 5 1 3 6 4 3 10 11 12 12 11 12 12 13 12 13 12 13 13 13 14
12 14 19 31 13 16 16 14 12 8 3 2 3 1 3 5 5 3 11 12 11 11 12 11 11 12 12 13 12 11 12 13 12
6 6 8 8 7 7 10 9 5 6 4 3 2 1 3 3 3 6 11 13 12 11 12 12 11 12 12 11 12 12 12 12 11
6 6 8 8 9 4 6 4 6 7 6 5 4 2 4 4 3 5 10 13 12 12 11 11 11 11 11 11 11 11 11 11 10
6 4 5 7 8 10 5 8 7 6 6 5 5 3 6 6 4 3 9 10 12 11 11 11 11 10 10 10 10 10 10 10 9
7 4 4 6 7 9 9 7 9 7 6 6 5 4 6 6 6 4 6 10 9 11 11 11 11 10 9 9 10 10 9 9 9
10 6 6 6 6 8 11 6 7 6 6 6 5 5 7 6 7 5 4 6 8 9 11 11 10 11 10 9 8 9 7 8 8
9 7 5 4 3 6 10 6 8 6 8 5 5 4 7 7 7 5 5 4 3 6 9 10 10 9 10 9 8 8 7 6 6
10 8 6 5 5 7 7 9 8 9 7 7 5 5 5 6 6 7 6 6 4 3 8 8 8 9 9 9 9 8 7 6 6
9 8 9 8 6 5 7 10 11 8 11 8 5 4 4 4 5 6 5 5 6 5 4 4 4 7 10 10 9 9 8 7 6
10 8 10 8 6 6 7 6 11 3 8 7 4 3 4 4 5 5 5 6 6 5 5 3 3 5 12 11 10 10 10 9 8
11 9 8 8 7 8 6 6 5 4 6 9 6 3 2 3 3 3 6 7 5 6 6 6 6 4 3 4 12 11 11 10 9
10 10 8 8 8 5 6 4 4 5 7 9 7 4 5 3 2 4 5 6 4 5 7 7 6 6 5 7 8 11 10 11 10
11 11 11 10 8 9 9 8 5 3 7 3 5 3 6 5 2 2 4 6 9 7 5 6 7 7 5 8 9 11 10 12 12
10 11 11 9 7 8 9 10 9 5 5 5 6 4 2 1 5 4 9 3 5 7 9 7 6 6 6 6 7 13 13 15 14
Wind_Direction
286 226 170 134 131 124 119 121 120 110 113 113 96 70 59 91 90 78 75 70 85 94 95 93 95 95 95 95 94 92 94 87 86
345 260 199 161 149 139 131 129 124 121 127 121 80 61 52 101 95 88 89 99 100 98 98 99 99 98 95 98 97 95 91 90 89
357 309 220 181 165 148 139 141 140 139 150 149 138 63 78 106 106 110 91 105 105 102 100 98 99 98 100 93 97 91 91 90 87
5 351 300 201 174 157 148 148 153 153 164 180 212 80 92 116 114 107 103 119 110 110 109 104 101 100 100 98 98 93 93 92 90
12 3 338 261 185 160 154 152 158 156 167 234 216 121 94 120 114 104 109 112 115 112 110 108 106 102 100 100 102 99 98 90 89
18 358 354 332 198 163 158 158 168 151 176 227 244 100 93 125 117 122 125 127 116 117 112 110 108 109 110 100 102 104 97 96 84
22 360 2 0 214 164 159 157 144 128 169 250 289 340 97 123 131 134 130 130 127 126 121 123 122 110 109 105 102 102 100 85 89
11 8 4 346 250 173 160 151 133 136 189 206 221 211 120 135 133 141 142 134 138 133 127 133 124 120 118 121 110 108 102 95 88
358 4 356 1 354 216 159 156 148 151 195 202 193 184 139 144 130 135 147 142 146 144 140 140 136 135 131 122 122 115 107 102 98
325 346 5 5 1 349 285 154 160 165 180 204 191 171 161 136 135 124 138 144 146 150 147 145 142 141 135 133 126 119 118 112 110
335 335 14 359 359 346 317 218 164 174 173 189 203 166 149 141 136 135 146 147 146 154 154 153 151 150 147 146 134 133 132 123 113
309 358 7 332 346 321 340 222 169 157 176 175 190 152 139 143 145 139 139 138 153 161 163 164 165 163 162 152 149 136 130 123 115
328 327 306 295 321 343 348 313 185 170 172 159 177 135 144 147 149 145 138 143 150 176 166 173 176 178 170 165 157 150 142 136 120
348 313 294 329 12 14 331 338 309 176 163 161 153 137 149 152 150 149 146 159 167 175 168 178 184 184 185 177 171 164 159 156 141
342 327 353 354 339 332 348 337 328 224 162 152 131 129 150 150 156 156 155 162 177 173 178 170 182 204 203 194 186 176 175 176 166
336 341 339 325 328 339 344 310 337 283 168 117 80 44 111 162 181 167 167 169 177 175 190 189 187 206 208 210 203 192 190 187 185
331 332 318 321 323 332 309 9 347 328 254 158 132 147 188 149 154 174 179 181 178 189 203 199 181 206 208 227 213 209 201 198 197
326 330 326 338 330 305 321 323 346 284 318 252 139 144 195 135 179 192 181 188 181 195 198 210 185 197 201 212 215 212 214 207 206
335 341 343 351 339 337 340 331 280 299 302 279 301 123 144 166 205 229 197 188 200 196 210 201 199 197 197 202 191 201 205 217 214
333 336 341 334 341 334 343 330 333 292 273 309 260 313 116 23 136 178 201 194 197 198 205 207 203 197 192 195 199 196 197 213 221